Back to catalog

FENGYUN 1C DEB

AliveSSO
NORAD 36260·DEBRIS·🇨🇳 China

Launched May 10, 1999 from Taiyuan Satellite Launch Center

Loading…

Next Passes (next 24 hours)

TLE

FreshSource: Space-Track

Epoch: Sep 14, 2026, 11:16 UTC

1 36260U 99025DWM 26257.46974986  .00000159  00000-0  10316-3 0  9996
2 36260  98.6695 256.9305 0015980 176.8924 183.2353 14.15540928917092

Track FENGYUN 1C DEB in real time with AllMySat

Download on the App Store